#timestamp,LO_Frequency,Hit,StdDev 
1600650015.2,286047001.2,N
1600650035.9,286046999.9,N
1600650055.7,286047000.6,N
1600650075.6,286047000.7,N
1600650095.4,286046999.7,N
1600650115.2,286047002.4,N
1600650135.1,286047002.7,N
1600650136.0,286047002.7,N
1600650155.8,286047000.5,N
1600650175.7,286047000.7,N
1600650195.5,286047000.5,N
1600650215.3,286047000.1,N
1600650235.2,286047002.0,N
1600650255.0,286047002.4,N
1600650255.9,286047002.4,N
1600650275.7,286047000.8,N
1600650295.6,286046999.9,N
1600650315.4,286046998.3,N
1600650335.3,286047001.1,N
1600650355.1,286047000.2,N
1600650375.8,286047001.1,N
1600650395.7,286047001.0,N
1600650415.5,286047002.4,N
1600650435.4,286047001.6,N
1600650455.2,286047002.5,N
1600650475.0,286046999.9,N
1600650475.9,286046999.9,N
1600650495.8,286046999.9,N
1600650515.6,286047001.6,N
1600650535.4,286047001.3,N
1600650555.3,286047004.3,Y
1600650575.1,286047002.5,P
1600650595.9,286047000.8,N
1600650615.7,286046998.1,N
1600650635.5,286046999.7,N
1600650655.4,286046999.8,N
1600650675.2,286046999.8,N
1600650695.1,286047000.3,N
1600650696.0,286047000.3,N
1600650715.8,286046999.9,N
1600650735.6,286047002.0,N
1600650755.5,286047001.7,N
1600650775.3,286047003.8,Y
1600650795.2,286047002.8,P
1600650815.9,286047002.8,N
1600650835.7,286046999.7,N
1600650855.6,286047000.4,N
1600650875.4,286047000.5,N
1600650895.2,286047001.1,N
1600650915.1,286046998.4,N
1600650916.0,286046998.4,N
1600650935.8,286047000.7,N
1600650955.7,286047000.7,N
1600650975.5,286047000.5,N
1600650995.3,286046999.8,N
1600651015.2,286047000.0,N
1600651035.0,286046998.6,N
1600651035.9,286046998.6,N
1600651055.7,286047002.1,N
1600651075.6,286047002.4,N
1600651095.4,286047002.7,N
1600651115.3,286047000.3,N
1600651135.1,286047000.9,N
1600651136.0,286047000.9,N
1600651155.8,286047000.5,N
1600651175.7,286047002.6,N
1600651195.5,286046999.9,N
1600651215.4,286047000.0,N
1600651235.2,286047001.1,N
1600651255.0,286047000.5,N
1600651255.9,286047000.5,N
1600651275.8,286047000.4,N
1600651295.6,286046998.1,N
1600651315.4,286047000.9,N
1600651335.3,286047002.7,N
1600651355.1,286047000.8,N
1600651375.9,286047001.2,N
1600651395.7,286046998.3,N
1600651415.6,286046997.0,N
1600651435.4,286046999.4,N
1600651455.2,286046998.1,N
1600651475.1,286046998.4,N
1600651476.0,286046998.4,N
1600651495.8,286046999.6,N
1600651515.6,286046998.6,N
1600651535.5,286046998.6,N
1600651555.3,286046998.1,N
1600651575.2,286046998.4,N
1600651595.9,286046999.3,N
1600651615.7,286046998.5,N
1600651635.6,286047001.0,N
1600651655.4,286047001.0,N
1600651675.2,286046998.7,N
1600651695.1,286046996.6,N
1600651696.0,286046996.6,N
1600651715.8,286046997.2,N
1600651735.7,286046998.9,N
1600651755.5,286046998.7,N
1600651775.3,286046999.2,N
1600651795.2,286046999.0,N
1600651815.9,286046999.0,N
1600651835.7,286046998.8,N
1600651855.6,286046998.8,N
1600651875.4,286046997.0,N
1600651895.2,286046996.8,N
1600651915.1,286046997.5,N
1600651916.0,286046997.5,N
1600651935.8,286046995.2,Y
1600651955.7,286046997.0,P
1600651975.5,286046997.2,P
1600651995.3,286046998.7,N
1600652015.2,286046998.9,N
1600652035.0,286046998.3,N
1600652035.9,286046998.3,N
1600652085.8,286047000.9,E
1600652095.7,286046998.4,N
1600652115.6,286046997.2,P
1600652135.4,286046996.9,P
1600652155.2,286046999.1,N
1600652175.1,286046998.9,N
1600652176.0,286046998.9,N
1600652195.8,286046999.4,N
1600652215.7,286046999.1,N
1600652235.5,286046998.9,N
1600652255.3,286046996.8,Y
1600652275.2,286047000.8,P
1600652295.0,286046998.3,N
1600652295.9,286046998.3,N
1600652315.8,286046999.9,N
1600652335.6,286046998.7,N
1600652355.4,286047000.8,N
1600652375.3,286047000.0,N
1600652395.1,286047000.1,N
1600652415.8,286047000.8,N
1600652435.7,286047000.0,N
1600652455.5,286046998.6,N
1600652475.4,286046998.2,N
1600652495.2,286047000.3,N
1600652515.0,286046998.9,N
1600652515.9,286046998.9,N
1600652535.8,286046999.9,N
1600652555.6,286047000.2,N
1600652575.4,286046999.8,N
1600652595.3,286047001.3,N
1600652615.1,286047001.9,N
1600652635.9,286047002.8,N
1600652655.7,286047001.9,N
1600652675.5,286047002.8,N
1600652695.4,286047000.3,N
1600652715.2,286047000.0,N
1600652735.0,286047000.2,N
1600652736.0,286047000.2,N
1600652755.8,286047002.1,N
1600652775.6,286047002.6,N
1600652795.5,286047002.3,N
1600652815.3,286047004.0,N
1600652835.1,286047001.3,N
1600652855.9,286047001.5,N
1600652875.3,286047002.1,N
1600652895.2,286047001.3,N
1600652915.0,286047001.4,N
1600652915.9,286047001.4,N
1600652935.8,286047000.1,N
1600652955.6,286047001.9,N
1600652975.4,286047001.4,N
1600652995.3,286047002.7,N
1600653015.1,286047001.6,N
1600653035.8,286047003.1,N
1600653055.7,286047002.2,N
1600653075.5,286047001.7,N
1600653095.4,286047002.1,N
1600653115.2,286047004.2,Y
1600653135.0,286047002.4,P
1600653135.9,286047002.4,P
1600653155.8,286047002.1,P
1600653175.6,286047003.6,Y
1600653195.4,286047001.1,P
1600653215.3,286046998.5,N
1600653235.1,286046998.5,N
1600653255.9,286047000.5,N
1600653275.7,286047000.8,N
1600653295.5,286046999.0,N
1600653315.4,286046999.0,N
1600653335.2,286046999.2,N
1600653355.0,286046999.3,N
1600653355.9,286046999.3,N
1600653375.8,286046999.2,N
1600653395.6,286047001.1,N
1600653415.5,286046999.0,N
1600653435.3,286046998.4,N
1600653455.1,286047000.8,N
1600653475.9,286047001.0,N
1600653495.7,286047000.8,N
1600653515.5,286046998.7,N
1600653535.4,286046999.2,N
1600653555.2,286046999.4,N
1600653575.1,286046996.7,Y
1600653576.0,286046996.7,P
1600653595.8,286046998.7,N
